DW8266 Weather Reports


Display with metric or nautical units.
time (UTC)temp
F
wind
direction
speed
MPH
gust
MPH
rain 1hr
in
rain 24hr
in
rain mn
in
humidity
%
barometer
mb
20260506044559 78 157 0.0 5.0 0.00 0.00 0.00 92 1009.4
20260506043110 78 157 0.0 4.0 0.00 0.00 0.00 92 1009.5
20260506041559 78 164 0.0 4.0 0.00 0.00 0.00 91 1009.1
20260506040059 78 171 1.0 4.0 0.00 0.00 0.00 91 1009.3
20260506034615 78 192 1.0 7.0 0.00 0.00 0.00 91 1009.1
20260506033058 78 138 1.0 5.0 0.00 0.00 0.00 90 1008.8
20260506031606 78 158 2.0 5.0 0.00 0.00 0.00 90 1008.8
20260506030059 78 155 1.0 5.0 0.00 0.00 0.00 90 1008.8
20260506030003 78 146 2.0 5.0 0.00 0.00 0.00 90 1008.8
20260506024558 79 161 3.0 7.0 0.00 0.00 0.00 90 1008.5
20260506023105 79 166 2.0 7.0 0.00 0.00 0.00 90 1008.5
20260506021601 79 163 1.0 6.0 0.00 0.00 0.00 89 1008.2
20260506020059 79 163 3.0 9.0 0.00 0.00 0.00 89 1008.0
20260506014559 79 137 3.0 7.0 0.00 0.00 0.00 89 1007.8
20260506013110 79 139 1.0 5.0 0.00 0.00 0.00 88 1007.5
20260506011601 80 167 1.0 6.0 0.00 0.00 0.00 87 1007.2
20260506010120 80 175 3.0 8.0 0.00 0.00 0.00 87 1007.1
20260506004557 80 105 2.0 7.0 0.00 0.00 0.00 86 1007.1
20260506003117 80 192 3.0 7.0 0.00 0.00 0.00 86 1006.7
20260506000058 81 156 3.0 9.0 0.00 0.00 0.00 85 1007.0
20260505234558 81 167 2.0 10.0 0.00 0.00 0.00 85 1006.7
20260505233111 81 167 3.0 8.0 0.00 0.00 0.00 85 1006.8
20260505231559 82 205 4.0 12.0 0.00 0.00 0.00 84 1006.8
20260505230100 82 175 3.0 10.0 0.00 0.00 0.00 84 1006.8
20260505230002 82 118 3.0 10.0 0.00 0.00 0.00 84 1006.8
20260505224557 82 171 3.0 8.0 0.00 0.00 0.00 84 1006.8
20260505223059 82 155 4.0 7.0 0.00 0.00 0.00 84 1006.9
20260505221600 83 211 4.0 9.0 0.00 0.00 0.00 83 1006.8
20260505220100 83 205 4.0 8.0 0.00 0.00 0.00 83 1006.9
20260505214628 83 137 3.0 10.0 0.00 0.00 0.00 83 1007.2
20260505213109 83 177 5.0 12.0 0.00 0.00 0.00 82 1007.3
20260505211559 83 135 4.0 10.0 0.00 0.00 0.00 81 1007.7
20260505210059 83 211 6.0 13.0 0.00 0.00 0.00 82 1007.8
20260505210002 83 214 4.0 11.0 0.00 0.00 0.00 83 1007.8
20260505204600 83 184 4.0 11.0 0.00 0.00 0.00 83 1008.1
20260505203100 83 188 4.0 13.0 0.00 0.00 0.00 82 1008.2
20260505200100 83 209 5.0 12.0 0.00 0.00 0.00 83 1008.4
20260505200003 83 205 4.0 9.0 0.00 0.00 0.00 83 1008.5
20260505194559 83 180 4.0 10.0 0.00 0.00 0.00 83 1008.7
20260505193059 82 216 5.0 14.0 0.00 0.00 0.00 85 1008.8
20260505191608 82 170 4.0 10.0 0.00 0.00 0.00 85 1009.0
20260505190105 81 211 5.0 10.0 0.00 0.00 0.00 85 1008.8
20260505184604 82 171 3.0 12.0 0.00 0.00 0.00 85 1009.0
20260505183131 81 196 4.0 10.0 0.00 0.00 0.00 85 1009.1
20260505181601 81 192 6.0 12.0 0.00 0.00 0.00 85 1009.1
20260505180100 80 214 6.0 12.0 0.00 0.00 0.00 86 1009.4
20260505174601 80 231 4.0 15.0 0.00 0.00 0.00 86 1009.6
20260505173107 80 184 2.0 10.0 0.00 0.00 0.00 87 1009.6
20260505171603 80 186 4.0 15.0 0.00 0.00 0.00 86 1009.5
20260505170058 80 191 5.0 10.0 0.00 0.00 0.00 87 1009.6
20260505164600 79 209 4.0 15.0 0.00 0.00 0.00 87 1009.7
20260505163059 79 211 5.0 12.0 0.00 0.00 0.00 89 1009.6
20260505161624 78 182 3.0 10.0 0.00 0.00 0.00 90 1009.6
20260505153100 77 213 3.0 9.0 0.00 0.00 0.00 90 1009.3
20260505153003 77 191 3.0 9.0 0.00 0.00 0.00 90 1009.3
20260505151621 77 213 5.0 11.0 0.00 0.00 0.00 91 1009.4
20260505124559 73 120 1.0 4.0 0.00 0.00 0.00 93 1009.2
20260505123059 72 135 0.0 3.0 0.00 0.00 0.00 94 1008.9
20260505121559 72 141 0.0 3.0 0.00 0.00 0.00 93 1008.8
20260505120124 72 158 1.0 3.0 0.00 0.00 0.00 93 1008.6
20260505114601 71 96 0.0 2.0 0.00 0.00 0.00 93 1008.5
20260505113058 71 153 0.0 2.0 0.00 0.00 0.00 93 1008.8
20260505111559 71 157 0.0 3.0 0.00 0.00 0.00 93 1008.4
20260505101600 71 173 1.0 5.0 0.00 0.00 0.00 93 1008.6
20260505100059 71 139 0.0 5.0 0.00 0.00 0.00 93 1008.8
20260505100002 71 139 1.0 5.0 0.00 0.00 0.00 93 1008.8
20260505094559 71 147 1.0 3.0 0.00 0.00 0.00 93 1008.8
20260505093101 71 101 0.0 5.0 0.00 0.00 0.00 92 1008.7
20260505091606 71 152 0.0 2.0 0.00 0.00 0.00 92 1008.8
20260505090003 71 152 1.0 3.0 0.00 0.00 0.00 92 1009.1
20260505084602 71 148 1.0 5.0 0.00 0.00 0.00 92 1009.1
20260505083059 71 139 1.0 3.0 0.00 0.00 0.00 92 1009.2
20260505081606 71 174 0.0 3.0 0.00 0.00 0.00 92 1009.3
20260505074601 71 173 0.0 5.0 0.00 0.00 0.00 91 1009.4
20260505073111 71 155 1.0 4.0 0.00 0.00 0.00 91 1009.4
20260505071601 71 145 1.0 5.0 0.00 0.00 0.00 90 1009.6
20260505070103 71 171 2.0 8.0 0.00 0.00 0.00 90 1009.9
20260505064558 71 150 1.0 5.0 0.00 0.00 0.00 90 1010.0
20260505063058 71 171 1.0 4.0 0.00 0.00 0.00 90 1010.1
20260505061559 71 202 2.0 7.0 0.00 0.00 0.00 89 1010.2
20260505060059 71 162 2.0 6.0 0.00 0.00 0.00 89 1010.4